Weather History for KETH - November, 2012

Change the Weather History Date:

Wednesday, November 7, 2012

  Actual Average (K8D3) Record (K8D3)
Temperature  
Mean Temperature 37 °F 36 °F  
Max Temperature 48 °F 45 °F 76 °F (1931)
Min Temperature 26 °F 26 °F 1 °F (2003)
Degree Days  
Heating Degree Days 28 29  
Month to date heating degree days 194  
Since 1 July heating degree days 1021  
Cooling Degree Days 0 0  
Month to date cooling degree days 0  
Year to date cooling degree days 527  
Moisture  
Dew Point 32 °F    
Average Humidity 78    
Maximum Humidity 100    
Minimum Humidity 58    
Precipitation  
Precipitation 0.00 in 0.03 in 0.65 in (1946)
Month to date precipitation 0.20  
Year to date precipitation 21.56  
Snow  
Snow 0.00 in - - ()
Month to date snowfall  
Since 1 July snowfall  
Snow Depth -    
Sea Level Pressure  
Sea Level Pressure 30.02 in    
Wind  
Wind Speed 7 mph (South)    
Max Wind Speed 21 mph    
Max Gust Speed 25 mph    
Visibility 10 miles    
Events      
T = Trace of Precipitation, MM = Missing Value Source: NWS Daily Summary

Daily Weather History Graph

Daily Weather History Graph

Search for Another Location

Airport or City:

Trip Planner

Search our weather history database for the weather conditions in past years. The results will help you decide how hot, cold, wet, or windy it might be!

Date:

Astronomy

Nov. 07, 2012 Rise Set
Actual Time 7:15 AM CST 5:03 PM CST
Civil Twilight 6:43 AM CST 5:35 PM CST
Nautical Twilight 6:08 AM CST 6:10 PM CST
Astronomical Twilight 5:33 AM CST 6:45 PM CST
Moon No Moon Rise 1:32 PM CST
Length of Visible Light 10h 51m
Length of Day
9h 48m
Last Quarter, 43% of the Moon is Illuminated
Nov 7
Last Quarter
Nov 13
New
Nov 20
First Quarter
Nov 28
Full
Dec 6
Last Quarter

Hourly Weather History & Observations

Time (CST) Temp. Windchill Dew Point Humidity Pressure Visibility Wind Dir Wind Speed Gust Speed Precip Events Conditions
12:14 AM 39.2 °F 37.0 °F 33.8 °F 81% 30.06 in 10.0 mi WNW 3.5 mph - N/A   Overcast
12:35 AM 39.2 °F 37.0 °F 33.8 °F 81% 30.06 in 10.0 mi WNW 3.5 mph - N/A   Overcast
12:54 AM 37.4 °F 32.8 °F 33.8 °F 87% 30.07 in 10.0 mi West 5.8 mph - N/A   Overcast
1:15 AM 35.6 °F 30.7 °F 32.0 °F 87% 30.08 in 10.0 mi West 5.8 mph - N/A   Mostly Cloudy
1:35 AM 33.8 °F 28.6 °F 30.2 °F 87% 30.08 in 10.0 mi West 5.8 mph - N/A   Clear
1:55 AM 32.0 °F 27.5 °F 30.2 °F 93% 30.09 in 10.0 mi West 4.6 mph - N/A   Clear
2:14 AM 32.0 °F 28.7 °F 28.4 °F 87% 30.09 in 10.0 mi WSW 3.5 mph - N/A   Clear
2:54 AM 30.2 °F 25.4 °F 28.4 °F 93% 30.10 in 10.0 mi West 4.6 mph - N/A   Clear
3:14 AM 30.2 °F 26.7 °F 28.4 °F 93% 30.09 in 10.0 mi West 3.5 mph - N/A   Clear
3:34 AM 30.2 °F 23.4 °F 28.4 °F 93% 30.09 in 10.0 mi WSW 6.9 mph - N/A   Clear
3:55 AM 30.2 °F 23.4 °F 28.4 °F 93% 30.10 in 10.0 mi West 6.9 mph - N/A   Clear
4:14 AM 30.2 °F 24.3 °F 28.4 °F 93% 30.10 in 10.0 mi West 5.8 mph - N/A   Clear
4:34 AM 30.2 °F 24.3 °F 28.4 °F 93% 30.10 in 10.0 mi West 5.8 mph - N/A   Clear
4:54 AM 28.4 °F 23.3 °F 26.6 °F 93% 30.10 in 10.0 mi WSW 4.6 mph - N/A   Clear
5:14 AM 28.4 °F 24.6 °F 26.6 °F 93% 30.10 in 10.0 mi WSW 3.5 mph - N/A   Clear
5:54 AM 28.4 °F 24.6 °F 26.6 °F 93% 30.10 in 10.0 mi WSW 3.5 mph - N/A   Clear
6:15 AM 26.6 °F 22.6 °F 24.8 °F 93% 30.11 in 10.0 mi WSW 3.5 mph - N/A   Clear
6:34 AM 28.4 °F 24.6 °F 28.4 °F 100% 30.11 in 10.0 mi WSW 3.5 mph - N/A   Clear
6:55 AM 28.4 °F 23.3 °F 26.6 °F 93% 30.11 in 10.0 mi WSW 4.6 mph - N/A   Clear
7:14 AM 28.4 °F 24.6 °F 26.6 °F 93% 30.11 in 10.0 mi West 3.5 mph - N/A   Clear
7:35 AM 28.4 °F 24.6 °F 26.6 °F 93% 30.11 in 10.0 mi WSW 3.5 mph - N/A   Clear
7:55 AM 28.4 °F 23.3 °F 26.6 °F 93% 30.11 in 10.0 mi WSW 4.6 mph - N/A   Clear
8:15 AM 30.2 °F - 28.4 °F 93% 30.11 in 10.0 mi Calm Calm - N/A   Clear
8:35 AM 32.0 °F - 28.4 °F 87% 30.11 in 10.0 mi Calm Calm - N/A   Clear
8:54 AM 33.8 °F - 30.2 °F 87% 30.11 in 10.0 mi Calm Calm - N/A   Clear
9:14 AM 35.6 °F - 30.2 °F 81% 30.11 in 10.0 mi Calm Calm - N/A   Clear
9:35 AM 37.4 °F - 32.0 °F 81% 30.11 in 10.0 mi Calm Calm - N/A   Clear
9:54 AM 39.2 °F - 32.0 °F 75% 30.12 in 10.0 mi Calm Calm - N/A   Clear
10:15 AM 37.4 °F - 33.8 °F 87% 30.11 in 10.0 mi Calm Calm - N/A   Clear
10:35 AM 39.2 °F 37.0 °F 33.8 °F 81% 30.11 in 10.0 mi ESE 3.5 mph - N/A   Clear
10:55 AM 41.0 °F 39.0 °F 33.8 °F 76% 30.11 in 10.0 mi SSW 3.5 mph - N/A   Clear
11:14 AM 42.8 °F 41.1 °F 33.8 °F 70% 30.10 in 10.0 mi SSE 3.5 mph - N/A   Clear
11:34 AM 42.8 °F 38.6 °F 35.6 °F 76% 30.08 in 10.0 mi SE 6.9 mph - N/A   Clear
11:54 AM 44.6 °F 40.7 °F 33.8 °F 66% 30.07 in 10.0 mi SSE 6.9 mph - N/A   Clear
12:15 PM 44.6 °F 41.4 °F 33.8 °F 66% 30.06 in 10.0 mi South 5.8 mph - N/A   Clear
12:34 PM 46.4 °F 43.5 °F 33.8 °F 62% 30.05 in 10.0 mi South 5.8 mph - N/A   Clear
12:54 PM 46.4 °F 41.9 °F 33.8 °F 62% 30.04 in 10.0 mi South 9.2 mph - N/A   Clear
1:14 PM 48.2 °F - 33.8 °F 58% 30.03 in 10.0 mi South 10.4 mph - N/A   Clear
1:35 PM 48.2 °F - 33.8 °F 58% 30.03 in 10.0 mi South 10.4 mph - N/A   Clear
1:54 PM 46.4 °F 41.9 °F 33.8 °F 62% 30.02 in 10.0 mi South 9.2 mph - N/A   Clear
2:14 PM 48.2 °F - 33.8 °F 58% 30.01 in 10.0 mi SSE 9.2 mph - N/A   Clear
2:35 PM 48.2 °F - 33.8 °F 58% 30.00 in 10.0 mi South 11.5 mph - N/A   Clear
2:54 PM 48.2 °F - 33.8 °F 58% 29.99 in 10.0 mi SSE 9.2 mph - N/A   Clear
3:14 PM 48.2 °F - 33.8 °F 58% 29.99 in 10.0 mi SSE 11.5 mph - N/A   Clear
3:39 PM 48.2 °F - 35.6 °F 62% 29.98 in 10.0 mi SE 11.5 mph - N/A   Clear
3:54 PM 48.2 °F - 35.6 °F 62% 29.96 in 10.0 mi SE 13.8 mph - N/A   Clear
4:14 PM 48.2 °F - 35.6 °F 62% 29.97 in 10.0 mi SE 10.4 mph - N/A   Clear
4:34 PM 46.4 °F 41.9 °F 35.6 °F 66% 29.97 in 10.0 mi SE 9.2 mph - N/A   Clear
4:54 PM 46.4 °F 41.9 °F 35.6 °F 66% 29.96 in 10.0 mi SE 9.2 mph - N/A   Clear
5:14 PM 44.6 °F 39.7 °F 35.6 °F 71% 29.95 in 10.0 mi SE 9.2 mph - N/A   Clear
5:34 PM 44.6 °F 39.7 °F 35.6 °F 71% 29.95 in 10.0 mi SE 9.2 mph - N/A   Clear
5:54 PM 42.8 °F 37.5 °F 33.8 °F 70% 29.94 in 10.0 mi ESE 9.2 mph - N/A   Clear
6:14 PM 42.8 °F 36.6 °F 33.8 °F 70% 29.94 in 10.0 mi SE 11.5 mph - N/A   Clear
6:34 PM 42.8 °F 35.4 °F 35.6 °F 76% 29.93 in 10.0 mi SE 15.0 mph - N/A   Clear
6:54 PM 42.8 °F 35.1 °F 35.6 °F 76% 29.92 in 10.0 mi SE 16.1 mph - N/A   Clear
7:14 PM 42.8 °F 35.1 °F 35.6 °F 76% 29.92 in 10.0 mi SE 16.1 mph - N/A   Clear
7:34 PM 42.8 °F 34.5 °F 33.8 °F 70% 29.92 in 10.0 mi SE 18.4 mph - N/A   Clear
7:54 PM 42.8 °F 35.1 °F 33.8 °F 70% 29.91 in 10.0 mi SE 16.1 mph - N/A   Clear
8:14 PM 42.8 °F 34.8 °F 33.8 °F 70% 29.92 in 10.0 mi SE 17.3 mph - N/A   Clear
8:35 PM 42.8 °F 35.4 °F 33.8 °F 70% 29.92 in 10.0 mi SE 15.0 mph 20.7 mph N/A   Clear
8:55 PM 42.8 °F 36.2 °F 33.8 °F 70% 29.92 in 10.0 mi SSE 12.7 mph 23.0 mph N/A   Clear
9:14 PM 42.8 °F 34.8 °F 33.8 °F 70% 29.92 in 10.0 mi SE 17.3 mph 20.7 mph N/A   Clear
9:34 PM 41.0 °F 32.2 °F 33.8 °F 76% 29.91 in 10.0 mi SE 18.4 mph - N/A   Clear
9:55 PM 41.0 °F 32.8 °F 33.8 °F 76% 29.90 in 10.0 mi SE 16.1 mph - N/A   Clear
10:14 PM 41.0 °F 32.5 °F 33.8 °F 76% 29.89 in 10.0 mi SE 17.3 mph - N/A   Clear
10:34 PM 39.2 °F 29.3 °F 33.8 °F 81% 29.88 in 10.0 mi SE 20.7 mph - N/A   Clear
10:54 PM 39.2 °F 29.3 °F 33.8 °F 81% 29.88 in 10.0 mi SE 20.7 mph - N/A   Clear
11:14 PM 39.2 °F 29.6 °F 33.8 °F 81% 29.87 in 10.0 mi SE 19.6 mph 25.3 mph N/A   Clear
11:35 PM 39.2 °F 29.6 °F 33.8 °F 81% 29.86 in 10.0 mi SE 19.6 mph - N/A   Clear
11:54 PM 39.2 °F 29.6 °F 33.8 °F 81% 29.86 in 10.0 mi SE 19.6 mph 24.2 mph N/A   Clear